CW8198 Weather Reports


time (UTC)temp
C
wind
direction
speed
KPH
gust
KPH
rain 1hr
cm
rain 24hr
cm
rain mn
cm
humidity
%
barometer
mb
20260831030930 26 103 3.2 4.8 0.00 0.00 0.00 81 1009.3
20260831030431 26 119 3.2 6.4 0.00 0.00 0.00 81 1009.4
20260831025930 26 119 3.2 6.4 0.00 0.00 0.00 80 1009.4
20260831024930 26 137 1.6 3.2 0.00 0.00 0.00 78 1009.5
20260831024429 27 234 1.6 3.2 0.00 0.00 0.00 78 1009.4
20260831023930 27 221 1.6 3.2 0.00 0.00 0.00 78 1009.5
20260831023430 27 137 1.6 3.2 0.00 0.00 0.00 78 1009.4
20260831022929 27 119 3.2 3.2 0.00 0.00 0.00 78 1009.4
20260831022431 27 137 0.0 3.2 0.00 0.00 0.00 78 1009.4
20260831021929 27 291 1.6 3.2 0.00 0.00 0.00 78 1009.3
20260831021429 27 205 3.2 3.2 0.00 0.00 0.00 78 1009.2
20260831020929 27 111 1.6 4.8 0.00 0.00 0.00 78 1009.2
20260831015929 27 117 3.2 6.4 0.00 0.00 0.00 77 1009.1
20260831015428 27 121 3.2 6.4 0.00 0.00 0.00 77 1009.0
20260831014928 27 178 1.6 3.2 0.00 0.00 0.00 76 1009.1
20260831013927 28 111 1.6 4.8 0.00 0.00 0.00 75 1008.9
20260831013427 28 153 1.6 6.4 0.00 0.00 0.00 74 1008.9
20260831012928 28 178 3.2 6.4 0.00 0.00 0.00 73 1008.9
20260831012427 28 119 3.2 6.4 0.00 0.00 0.00 72 1008.8
20260831011927 29 110 3.2 4.8 0.00 0.00 0.00 69 1008.8
20260831011427 29 119 1.6 3.2 0.00 0.00 0.00 67 1008.8
20260831010427 30 119 0.0 1.6 0.00 0.00 0.00 66 1008.7
20260831005428 30 119 0.0 3.2 0.00 0.00 0.00 64 1008.7
20260831004927 30 238 0.0 3.2 0.00 0.00 0.00 63 1008.6
20260831004426 31 196 0.0 3.2 0.00 0.00 0.00 61 1008.7
20260831003425 31 226 1.6 4.8 0.00 0.00 0.00 61 1008.7
20260831002925 31 205 3.2 6.4 0.00 0.00 0.00 61 1008.7
20260831002425 31 234 3.2 6.4 0.00 0.00 0.00 60 1008.7
20260831001924 31 208 3.2 8.0 0.00 0.00 0.00 60 1008.8
20260831001425 31 205 3.2 9.7 0.00 0.00 0.00 59 1008.7
20260831000924 32 219 4.8 9.7 0.00 0.00 0.00 58 1008.7
20260831000425 32 215 4.8 9.7 0.00 0.00 0.00 58 1008.7
20260830235923 32 178 3.2 9.7 0.00 0.00 0.00 57 1008.7
20260830235423 32 230 4.8 11.3 0.00 0.00 0.00 57 1008.7
20260830234923 32 247 3.2 11.3 0.00 0.00 0.00 58 1008.6
20260830234424 33 240 4.8 9.7 0.00 0.00 0.00 56 1008.7
20260830233923 33 243 3.2 9.7 0.00 0.00 0.00 59 1008.7
20260830233423 33 212 4.8 9.7 0.00 0.00 0.00 58 1008.6
20260830232923 33 265 4.8 9.7 0.00 0.00 0.00 58 1008.7
20260830232423 33 238 3.2 9.7 0.00 0.00 0.00 60 1008.6
20260830231925 33 234 4.8 11.3 0.00 0.00 0.00 59 1008.7
20260830231423 33 261 6.4 11.3 0.00 0.00 0.00 57 1008.6
20260830230922 33 208 4.8 12.9 0.00 0.00 0.00 56 1008.5
20260830225922 33 221 4.8 16.1 0.00 0.00 0.00 56 1008.4
20260830225422 32 259 8.0 16.1 0.00 0.00 0.00 55 1008.4
20260830224921 32 243 6.4 12.9 0.00 0.00 0.00 56 1008.5
20260830224421 32 178 8.0 12.9 0.00 0.00 0.00 55 1008.5
20260830223922 32 198 6.4 19.3 0.00 0.00 0.00 54 1008.6
20260830222421 32 171 9.7 19.3 0.00 0.00 0.00 54 1008.6
20260830221923 32 227 6.4 17.7 0.00 0.00 0.00 54 1008.5
20260830221421 32 221 11.3 20.9 0.00 0.00 0.00 54 1008.4
20260830220421 32 219 11.3 24.1 0.00 0.00 0.00 54 1008.4
20260830215920 32 229 11.3 24.1 0.00 0.00 0.00 53 1008.4
20260830215420 32 221 6.4 19.3 0.00 0.00 0.00 54 1008.4
20260830212920 32 216 9.7 14.5 0.00 0.00 0.00 53 1008.2
20260830212419 32 190 6.4 17.7 0.00 0.00 0.00 55 1008.3
20260830211920 32 225 9.7 19.3 0.00 0.00 0.00 53 1008.3
20260830211418 32 166 8.0 24.1 0.00 0.00 0.00 54 1008.2
20260830210919 32 217 9.7 25.7 0.00 0.00 0.00 54 1008.4
20260830205918 31 229 9.7 22.5 0.00 0.00 0.00 54 1008.7
20260830205418 31 200 11.3 22.5 0.00 0.00 0.00 53 1008.9
20260830204918 31 212 12.9 20.9 0.00 0.00 0.00 53 1008.9
20260830204418 31 232 14.5 20.9 0.00 0.00 0.00 52 1008.9
20260830203918 31 225 8.0 19.3 0.00 0.00 0.00 54 1008.8
20260830202917 31 189 11.3 27.4 0.00 0.00 0.00 51 1008.9
20260830202417 32 214 14.5 27.4 0.00 0.00 0.00 53 1009.0
20260830201918 31 198 6.4 19.3 0.00 0.00 0.00 57 1009.0
20260830201416 31 254 9.7 19.3 0.00 0.00 0.00 55 1008.9
20260830200917 31 178 4.8 17.7 0.00 0.00 0.00 56 1008.6
20260830200416 31 178 6.4 17.7 0.00 0.00 0.00 55 1008.7
20260830195916 31 219 8.0 17.7 0.00 0.00 0.00 56 1008.9
20260830195416 31 202 9.7 22.5 0.00 0.00 0.00 55 1009.0
20260830194916 31 231 11.3 22.5 0.00 0.00 0.00 55 1009.0
20260830194415 31 201 11.3 22.5 0.00 0.00 0.00 55 1009.1
20260830193915 31 200 9.7 22.5 0.00 0.00 0.00 56 1009.3
20260830193414 31 275 11.3 24.1 0.00 0.00 0.00 55 1009.4
20260830192915 31 177 12.9 25.7 0.00 0.00 0.00 54 1009.3
20260830192415 31 187 14.5 25.7 0.00 0.00 0.00 54 1009.3
20260830191916 31 213 9.7 22.5 0.00 0.00 0.00 55 1009.2
20260830191415 31 225 11.3 22.5 0.00 0.00 0.00 54 1009.1
20260830190914 32 200 11.3 19.3 0.00 0.00 0.00 55 1009.0
20260830190414 32 201 4.8 16.1 0.00 0.00 0.00 58 1008.8
20260830185914 31 169 8.0 16.1 0.00 0.00 0.00 56 1008.7
20260830185414 31 151 8.0 19.3 0.00 0.00 0.00 57 1008.8
20260830184914 31 200 11.3 19.3 0.00 0.00 0.00 58 1009.0
20260830184413 31 262 9.7 22.5 0.00 0.00 0.00 57 1009.0
20260830183914 31 240 11.3 22.5 0.00 0.00 0.00 58 1008.9
20260830182913 30 221 8.0 17.7 0.00 0.00 0.00 61 1009.0
20260830182413 30 223 4.8 20.9 0.00 0.00 0.00 59 1009.1
20260830181914 30 223 9.7 24.1 0.00 0.00 0.00 57 1009.1
20260830181413 30 229 12.9 24.1 0.00 0.00 0.00 56 1009.2
20260830180913 30 219 12.9 24.1 0.00 0.00 0.00 56 1009.4
20260830180410 30 100 14.5 22.5 0.00 0.00 0.00 58 1009.5
20260830175911 29 223 11.3 22.5 0.00 0.00 0.00 58 1009.4
20260830175411 29 225 9.7 20.9 0.00 0.00 0.00 57 1009.6
20260830174910 30 257 9.7 20.9 0.00 0.00 0.00 57 1009.6
20260830174410 30 178 6.4 19.3 0.00 0.00 0.00 57 1009.4
20260830173910 30 171 8.0 16.1 0.00 0.00 0.00 57 1009.4
20260830173409 30 232 9.7 19.3 0.00 0.00 0.00 57 1009.3
20260830172909 30 238 9.7 20.9 0.00 0.00 0.00 59 1009.5
20260830171910 30 203 9.7 19.3 0.00 0.00 0.00 55 1009.5
20260830171409 30 188 11.3 19.3 0.00 0.00 0.00 55 1009.4
20260830170909 30 212 8.0 19.3 0.00 0.00 0.00 58 1009.4
20260830165909 30 165 6.4 19.3 0.00 0.00 0.00 57 1009.3
20260830165408 30 200 9.7 19.3 0.00 0.00 0.00 56 1009.3
20260830164408 30 169 9.7 19.3 0.00 0.00 0.00 55 1009.3
20260830163908 30 182 6.4 24.1 0.00 0.00 0.00 54 1009.2
20260830163407 30 205 8.0 24.1 0.00 0.00 0.00 57 1009.3
20260830162907 30 200 11.3 19.3 0.00 0.00 0.00 55 1009.3
20260830162407 30 177 9.7 19.3 0.00 0.00 0.00 56 1009.4
20260830161407 29 171 9.7 22.5 0.00 0.00 0.00 58 1009.4
20260830160906 29 159 8.0 20.9 0.00 0.00 0.00 60 1009.3
20260830160406 28 215 11.3 20.9 0.00 0.00 0.00 59 1009.3
20260830155406 28 137 8.0 19.3 0.00 0.00 0.00 61 1009.2
20260830154406 28 151 6.4 19.3 0.00 0.00 0.00 61 1009.2
20260830153905 28 133 9.7 19.3 0.00 0.00 0.00 61 1009.2
20260830153405 28 188 6.4 14.5 0.00 0.00 0.00 63 1009.5
20260830152406 28 153 6.4 16.1 0.00 0.00 0.00 61 1009.4
20260830151907 28 175 6.4 16.1 0.00 0.00 0.00 62 1009.4
20260830151405 28 221 6.4 14.5 0.00 0.00 0.00 62 1009.2
20260830150905 28 133 4.8 14.5 0.00 0.00 0.00 63 1009.2
20260830150404 27 170 6.4 14.5 0.00 0.00 0.00 63 1009.2
20260830145904 27 121 4.8 14.5 0.00 0.00 0.00 63 1009.1
20260830145404 27 128 8.0 14.5 0.00 0.00 0.00 62 1009.2
20260830144904 27 168 4.8 16.1 0.00 0.00 0.00 63 1009.1
20260830144404 27 130 8.0 16.1 0.00 0.00 0.00 64 1009.1
20260830143903 27 178 8.0 19.3 0.00 0.00 0.00 65 1009.0
20260830143403 27 162 6.4 19.3 0.00 0.00 0.00 65 1008.9
20260830142903 26 216 6.4 14.5 0.00 0.00 0.00 66 1009.0
20260830142402 26 158 6.4 12.9 0.00 0.00 0.00 67 1008.8
20260830141904 26 214 6.4 14.5 0.00 0.00 0.00 68 1009.0
20260830140903 25 286 6.4 16.1 0.00 0.00 0.00 67 1009.1
20260830135901 25 175 6.4 14.5 0.00 0.00 0.00 68 1009.1
20260830134902 25 148 6.4 14.5 0.00 0.00 0.00 68 1009.1
20260830134401 25 196 4.8 9.7 0.00 0.00 0.00 68 1009.1
20260830133901 25 151 4.8 8.0 0.00 0.00 0.00 69 1009.2
20260830133400 25 137 4.8 9.7 0.00 0.00 0.00 69 1009.0
20260830132901 25 137 4.8 12.9 0.00 0.00 0.00 69 1009.0
20260830132401 25 137 4.8 12.9 0.00 0.00 0.00 69 1009.1
20260830131400 25 133 4.8 11.3 0.00 0.00 0.00 69 1009.1
20260830130900 25 137 4.8 11.3 0.00 0.00 0.00 68 1009.1
20260830130359 25 150 4.8 11.3 0.00 0.00 0.00 68 1009.2
20260830125900 25 140 4.8 11.3 0.00 0.00 0.00 68 1009.2
20260830125359 25 196 3.2 9.7 0.00 0.00 0.00 67 1009.3
20260830124859 25 119 4.8 9.7 0.00 0.00 0.00 67 1009.3
20260830123859 25 238 4.8 16.1 0.00 0.00 0.00 67 1009.3
20260830123358 25 150 3.2 16.1 0.00 0.00 0.00 66 1009.3
20260830122859 25 157 6.4 14.5 0.00 0.00 0.00 66 1009.2
20260830122359 25 173 6.4 14.5 0.00 0.00 0.00 66 1009.0
20260830121859 25 178 6.4 14.5 0.00 0.00 0.00 66 1008.9
20260830121358 25 221 6.4 16.1 0.00 0.00 0.00 66 1009.0
20260830120858 25 162 8.0 16.1 0.00 0.00 0.00 66 1008.9
20260830120357 25 153 4.8 14.5 0.00 0.00 0.00 66 1009.1
20260830115857 25 119 6.4 14.5 0.00 0.00 0.00 66 1009.2
20260830115356 25 144 6.4 9.7 0.00 0.00 0.00 66 1009.1
20260830114856 25 171 3.2 11.3 0.00 0.00 0.00 66 1009.1
20260830114356 25 102 4.8 11.3 0.00 0.00 0.00 66 1008.9
20260830113856 25 123 6.4 11.3 0.00 0.00 0.00 66 1008.9
20260830113356 25 128 4.8 11.3 0.00 0.00 0.00 65 1008.9
20260830112856 25 133 4.8 11.3 0.00 0.00 0.00 65 1009.0
20260830112357 25 126 3.2 14.5 0.00 0.00 0.00 65 1009.0
20260830111355 25 163 3.2 16.1 0.00 0.00 0.00 66 1009.2
20260830110855 25 213 6.4 16.1 0.00 0.00 0.00 66 1009.4
20260830110355 25 213 4.8 11.3 0.00 0.00 0.00 67 1009.6
20260830105854 25 265 4.8 14.5 0.00 0.00 0.00 67 1009.7
20260830105354 25 254 6.4 14.5 0.00 0.00 0.00 67 1009.7
20260830104854 25 236 3.2 14.5 0.00 0.00 0.00 66 1009.7
20260830103854 26 238 8.0 11.3 0.00 0.00 0.00 64 1009.5
20260830103354 26 191 4.8 14.5 0.00 0.00 0.00 64 1009.5
20260830102853 26 192 6.4 14.5 0.00 0.00 0.00 64 1009.6
20260830102355 26 198 4.8 9.7 0.00 0.00 0.00 65 1009.6
20260830101854 26 221 6.4 11.3 0.00 0.00 0.00 64 1009.7
20260830101353 26 237 4.8 12.9 0.00 0.00 0.00 64 1009.9
20260830100854 26 236 4.8 12.9 0.00 0.00 0.00 64 1009.8
20260830100353 26 226 4.8 12.9 0.00 0.00 0.00 64 1009.8
20260830095853 26 209 3.2 11.3 0.00 0.00 0.00 64 1009.6
20260830094852 26 193 6.4 12.9 0.00 0.00 0.00 63 1009.7
20260830094352 26 191 4.8 9.7 0.00 0.00 0.00 63 1009.7
20260830093852 26 156 6.4 11.3 0.00 0.00 0.00 63 1009.7
20260830092853 26 203 6.4 12.9 0.00 0.00 0.00 63 1009.7
20260830092353 26 203 6.4 12.9 0.00 0.00 0.00 64 1009.8
20260830091852 26 242 6.4 11.3 0.00 0.00 0.00 64 1009.7
20260830091352 26 200 6.4 11.3 0.00 0.00 0.00 64 1009.4
20260830090851 26 201 4.8 14.5 0.00 0.00 0.00 64 1009.4
20260830090353 26 205 6.4 14.5 0.00 0.00 0.00 64 1009.3
20260830085852 26 119 6.4 12.9 0.00 0.00 0.00 64 1009.3
20260830085352 26 205 6.4 12.9 0.00 0.00 0.00 65 1009.3
20260830084851 26 178 6.4 12.9 0.00 0.00 0.00 65 1009.3
20260830084351 26 195 3.2 14.5 0.00 0.00 0.00 65 1009.2
20260830083850 26 198 8.0 14.5 0.00 0.00 0.00 65 1009.3
20260830083351 26 187 6.4 9.7 0.00 0.00 0.00 65 1009.3
20260830082851 26 163 4.8 11.3 0.00 0.00 0.00 65 1009.3
20260830081851 26 196 6.4 19.3 0.00 0.00 0.00 65 1009.4
20260830081350 26 121 6.4 19.3 0.00 0.00 0.00 65 1009.3
20260830080850 26 158 6.4 14.5 0.00 0.00 0.00 65 1009.3
20260830080350 26 162 4.8 12.9 0.00 0.00 0.00 65 1009.3
20260830075850 26 178 6.4 11.3 0.00 0.00 0.00 65 1009.3
20260830075350 26 188 4.8 12.9 0.00 0.00 0.00 65 1009.2
20260830074850 26 190 6.4 12.9 0.00 0.00 0.00 65 1009.2
20260830074349 26 148 6.4 12.9 0.00 0.00 0.00 65 1009.1
20260830073850 26 164 8.0 16.1 0.00 0.00 0.00 65 1009.1
20260830073349 26 168 8.0 16.1 0.00 0.00 0.00 65 1009.0
20260830072849 26 137 6.4 11.3 0.00 0.00 0.00 65 1009.0
20260830071849 26 163 8.0 12.9 0.00 0.00 0.00 65 1009.1
20260830071349 26 134 3.2 14.5 0.00 0.00 0.00 65 1009.2
20260830070350 26 161 6.4 16.1 0.00 0.00 0.00 65 1009.2
20260830065849 26 193 8.0 16.1 0.00 0.00 0.00 65 1009.2
20260830065349 26 188 6.4 14.5 0.00 0.00 0.00 65 1009.2
20260830064849 26 209 6.4 14.5 0.00 0.00 0.00 65 1009.2
20260830064348 26 156 4.8 14.5 0.00 0.00 0.00 65 1009.3
20260830063848 26 195 6.4 12.9 0.00 0.00 0.00 65 1009.3
20260830063349 26 195 4.8 12.9 0.00 0.00 0.00 65 1009.3
20260830062848 26 148 4.8 12.9 0.00 0.00 0.00 65 1009.4
20260830062349 26 173 4.8 12.9 0.00 0.00 0.00 65 1009.4
20260830061848 26 138 6.4 14.5 0.00 0.00 0.00 65 1009.4
20260830061347 27 202 6.4 14.5 0.00 0.00 0.00 65 1009.5
20260830060848 27 149 6.4 14.5 0.00 0.00 0.00 64 1009.4
20260830060348 27 167 6.4 14.5 0.00 0.00 0.00 64 1009.3
20260830055848 27 144 4.8 14.5 0.00 0.00 0.00 64 1009.3
20260830055347 27 134 4.8 12.9 0.00 0.00 0.00 63 1009.4
20260830054847 27 234 6.4 16.1 0.00 0.00 0.00 63 1009.4
20260830054347 27 192 8.0 19.3 0.00 0.00 0.00 62 1009.4
20260830053847 27 159 8.0 19.3 0.00 0.00 0.00 62 1009.3
20260830052847 27 207 6.4 12.9 0.00 0.00 0.00 63 1009.3
20260830052348 27 178 6.4 19.3 0.00 0.00 0.00 63 1009.3
20260830051846 28 201 4.8 19.3 0.00 0.00 0.00 63 1009.3
20260830050846 28 158 6.4 17.7 0.00 0.00 0.00 63 1009.2
20260830050346 28 234 4.8 17.7 0.00 0.00 0.00 63 1009.2
20260830045846 28 110 4.8 16.1 0.00 0.00 0.00 63 1009.2
20260830045346 28 167 6.4 16.1 0.00 0.00 0.00 62 1009.1
20260830044846 28 173 6.4 12.9 0.00 0.00 0.00 62 1009.1
20260830044346 28 175 6.4 12.9 0.00 0.00 0.00 62 1009.2
20260830043846 28 170 9.7 25.7 0.00 0.00 0.00 62 1009.1
20260830042346 28 171 6.4 20.9 0.00 0.00 0.00 63 1009.2
20260830041345 28 184 6.4 16.1 0.00 0.00 0.00 63 1009.2
20260830040844 28 162 6.4 19.3 0.00 0.00 0.00 63 1009.2
20260830040345 28 150 9.7 19.3 0.00 0.00 0.00 63 1009.1
20260830035845 28 164 9.7 19.3 0.00 0.00 0.00 63 1009.2
20260830035344 28 190 8.0 22.5 0.00 0.00 0.00 64 1009.2
20260830034844 28 93 11.3 22.5 0.00 0.00 0.00 64 1009.2
20260830034343 28 155 9.7 14.5 0.00 0.00 0.00 64 1009.1
20260830033844 28 189 9.7 17.7 0.00 0.00 0.00 64 1009.2
20260830033343 28 173 8.0 17.7 0.00 0.00 0.00 64 1009.1
20260830032843 28 198 11.3 17.7 0.00 0.00 0.00 64 1009.1
20260830032344 28 165 9.7 19.3 0.00 0.00 0.00 64 1008.9
20260830031843 28 156 9.7 19.3 0.00 0.00 0.00 64 1008.9